Weather History for KELY - August, 2013

Change the Weather History Date:

Wednesday, August 7, 2013

  Actual Average Record
Temperature  
Mean Temperature 69 °F 68 °F  
Max Temperature 88 °F 87 °F 95 °F (1960)
Min Temperature 49 °F 49 °F 31 °F (2009)
Degree Days  
Heating Degree Days 0 1  
Month to date heating degree days 1 1  
Since 1 June heating degree days 101 199  
Since 1 July heating degree days 6 24  
Cooling Degree Days 4 3  
Month to date cooling degree days 23 26  
Year to date cooling degree days 291 161  
Since 1 June cooling degree days 291 160  
Growing Degree Days 18 (Base 50)    
Moisture  
Dew Point 23 °F    
Average Humidity 21    
Maximum Humidity 32    
Minimum Humidity 9    
Precipitation  
Precipitation 0.00 in 0.03 in 0.78 in (1982)
Month to date precipitation 0.00 0.22  
Year to date precipitation 3.36 5.96  
Snow  
Snow 0.00 in 0.00 in 0.00 in (1893)
Month to date snowfall 0.0 0.0  
Since 1 June snowfall 0.0 0.1  
Since 1 July snowfall 0.0 0.0  
Snow Depth 0.00 in    
Sea Level Pressure  
Sea Level Pressure 29.82 in    
Wind  
Wind Speed 11 mph (South)    
Max Wind Speed 23 mph    
Max Gust Speed 29 mph    
Visibility 10 miles    
Events      
T = Trace of Precipitation, MM = Missing Value Source: NWS Daily Summary

Daily Weather History Graph

Daily Weather History Graph

Search for Another Location

Airport or City:

Trip Planner

Search our weather history database for the weather conditions in past years. The results will help you decide how hot, cold, wet, or windy it might be!

Date:

Astronomy

Aug. 07, 2013 Rise Set
Actual Time 5:45 AM PDT 7:44 PM PDT
Civil Twilight 5:15 AM PDT 8:13 PM PDT
Nautical Twilight 4:40 AM PDT 8:49 PM PDT
Astronomical Twilight 4:01 AM PDT 9:27 PM PDT
Moon 6:37 AM PDT (8/7) 7:54 PM PDT (8/7)
Length of Visible Light 14h 57m
Length of Day
13h 59m
New Moon, 1% of the Moon is Illuminated
Aug 7
New Moon
Aug 14
First Quarter
Aug 20
Full
Aug 28
Last Quarter
Sep 5
New

Hourly Weather History & Observations

Time (PDT) Temp. Dew Point Humidity Pressure Visibility Wind Dir Wind Speed Gust Speed Precip Events Conditions
12:53 AM 62.1 °F 19.9 °F 20% 29.83 in 10.0 mi South 12.7 mph - N/A   Clear
1:53 AM 62.1 °F 17.1 °F 18% 29.83 in 10.0 mi SSW 13.8 mph - N/A   Clear
2:53 AM 53.1 °F 18.0 °F 25% 29.87 in 10.0 mi South 10.4 mph - N/A   Clear
3:53 AM 50.0 °F 19.9 °F 31% 29.87 in 10.0 mi SSE 11.5 mph - N/A   Clear
4:53 AM 60.1 °F 21.0 °F 22% 29.84 in 10.0 mi SSW 12.7 mph - N/A   Clear
5:53 AM 50.0 °F 21.0 °F 32% 29.89 in 10.0 mi South 12.7 mph - N/A   Clear
6:53 AM 63.0 °F 25.0 °F 24% 29.87 in 10.0 mi South 13.8 mph - N/A   Clear
7:53 AM 69.1 °F 26.1 °F 20% 29.86 in 10.0 mi SSW 11.5 mph - N/A   Clear
8:53 AM 75.0 °F 25.0 °F 16% 29.85 in 10.0 mi South 10.4 mph - N/A   Clear
9:53 AM 79.0 °F 21.0 °F 12% 29.85 in 10.0 mi Calm Calm - N/A   Clear
10:53 AM 82.0 °F 21.0 °F 10% 29.83 in 10.0 mi West 5.8 mph - N/A   Clear
11:53 AM 84.9 °F 21.0 °F 10% 29.81 in 10.0 mi South 15.0 mph 19.6 mph N/A   Clear
12:53 PM 86.0 °F 21.9 °F 10% 29.81 in 10.0 mi SSE 9.2 mph 24.2 mph N/A   Clear
1:53 PM 87.1 °F 21.9 °F 9% 29.78 in 10.0 mi SW 9.2 mph 21.9 mph N/A   Clear
2:53 PM 84.0 °F 24.1 °F 11% 29.80 in 10.0 mi SW 17.3 mph 26.5 mph N/A   Clear
3:53 PM 84.9 °F 26.1 °F 12% 29.80 in 10.0 mi SSW 13.8 mph 21.9 mph N/A   Clear
4:53 PM 86.0 °F 24.1 °F 10% 29.75 in 10.0 mi SSW 13.8 mph 23.0 mph N/A   Clear
5:53 PM 84.9 °F 24.1 °F 11% 29.77 in 10.0 mi SSW 17.3 mph 25.3 mph N/A   Clear
6:53 PM 82.0 °F 25.0 °F 12% 29.75 in 10.0 mi SSW 12.7 mph - N/A   Partly Cloudy
7:53 PM 77.0 °F 25.0 °F 15% 29.77 in 10.0 mi SSE 9.2 mph - N/A   Clear
8:53 PM 73.9 °F 25.0 °F 16% 29.78 in 10.0 mi SSE 12.7 mph 20.7 mph N/A   Clear
9:53 PM 73.0 °F 19.0 °F 13% 29.79 in 10.0 mi SSE 9.2 mph 25.3 mph N/A   Clear
10:53 PM 66.0 °F 25.0 °F 21% 29.81 in 10.0 mi South 9.2 mph - N/A   Clear
11:53 PM 64.0 °F 21.9 °F 20% 29.81 in 10.0 mi South 10.4 mph - N/A   Clear